Regional Weather Roundup
Issued by NWS

Home | Current Version | Previous Version | Text Only | Print | Product List | Glossary On
Versions: 1 2 3 4 5 6 7 8 9 10 11 12 13 14 15 16 17 18 19 20 21 22 23 24 25 26 27 28 29 30 31 32 33 34 35 36 37 38 39 40 41 42 43 44 45 46 47 48 49 50
000
ASUS45 KBOI 211110
RWRID
WEATHER ROUNDUP FOR IDAHO
NATIONAL WEATHER SERVICE BOISE ID
400 AM MST SUN DEC 21 2014

NOTE: "FAIR" INDICATES FEW OR NO CLOUDS BELOW 12000 FEET
WITH NO SIGNIFICANT WEATHER AND/OR OBSTRUCTIONS TO VISIBILITY

IDZ012-014-211200-
SOUTHWEST IDAHO


CITY           SKY/WX    TMP DP  RH WIND       PRES   REMARKS
BOISE          CLOUDY    42  39  89 SE8       29.84F
CALDWELL       CLOUDY    43  36  75 NE10      29.84F
MOUNTAIN HOME  LGT RAIN  41  40  95 E12       29.86F
$$

IDZ016-017-211200-
SOUTHCENTRAL IDAHO


CITY           SKY/WX    TMP DP  RH WIND       PRES   REMARKS
BURLEY         LGT RAIN  40  36  86 SW14      29.89S WCI  32
JEROME         LGT RAIN  41  38  89 SW12      29.89F
TWIN FALLS     LGT RAIN  45  39  79 SW14      29.90R
$$

IDZ019>023-211200-
SOUTHEAST IDAHO


CITY           SKY/WX    TMP DP  RH WIND       PRES   REMARKS
IDAHO FALLS    CLOUDY    37  35  92 S22G29    29.79F FOG     WCI  26
POCATELLO      CLOUDY    39  37  92 SW17G25   29.84F WCI  30
REXBURG        CLOUDY    34  34 100 SW21G35   29.75F WCI  22
$$

IDZ006-010-011-018-031-032-211200-
CENTRAL IDAHO MOUNTAINS


CITY           SKY/WX    TMP DP  RH WIND       PRES   REMARKS
MCCALL         LGT RAIN  33  32  96 CALM      29.73F
HAILEY         LGT SNOW  32  32 100 CALM      29.86F
STANLEY          N/A     35  31  85 SE15      29.75F WCI  25
SALMON         CLOUDY    34  30  86 N5        29.64F WCI  30
CHALLIS        CLOUDY    33  32  96 CALM      29.70F
$$

IDZ002-004-006-007-026-211200-
NORTHERN IDAHO


CITY           SKY/WX    TMP DP  RH WIND       PRES   REMARKS
LEWISTON       CLOUDY    54  44  69 SW21G31   29.53S
LOWELL           N/A     39  37  92 N3        29.64F
COEUR D`ALENE  CLOUDY    46  45  93 W18G26    29.45S
MULLAN PASS    LGT SNOW  33  30  88 SW14G25   29.44S FOG     WCI  23
$$


USA.gov is the U.S. government's official web portal to all federal, state and local government web resources and services.